Regional Weather Roundup
Issued by NWS

Home | Current Version | Previous Version | Text Only | Print | Product List | Glossary Off
Versions: 1 2 3 4 5 6 7 8 9 10 11 12 13 14 15 16 17 18 19 20 21 22 23 24 25 26 27 28 29 30 31 32 33 34 35 36 37 38 39 40 41 42 43 44 45 46 47 48 49 50

035
ASUS44 KMEG 221400
RWRTN
TENNESSEE HOURLY STATE WEATHER ROUNDUP
NATIONAL WEATHER SERVICE MEMPHIS TN
800 AM CST WED FEB 22 2017

TNZ002-004-019-021-049-052-054-088>092-221500-
WEST TENNESSEE

CITY           SKY/WX    TMP DP  RH WIND       PRES   REMARKS
MEMPHIS INTL   PTSUNNY   59  58  96 E10       29.88S
NWS MEMPHIS      N/A     58 N/A N/A MISG        N/A
JACKSON        FAIR      58  57  97 E7        29.90S
UNION CITY     PTSUNNY  N/A N/A N/A CALM      29.90R
PARIS          SUNNY     55  54  94 NE3       29.91R
$$

TNZ008-025-027-028-033-062-065-066-221500-
NORTH MIDDLE TENNESSEE

CITY           SKY/WX    TMP DP  RH WIND       PRES   REMARKS
NASHVILLE      CLOUDY    58  55  90 N6        29.93R
CLARKSVILLE    FAIR      56  54  93 E5        29.90S FOG
SMYRNA         CLOUDY    56  55  97 N8        29.93R
CROSSVILLE     LGT RAIN  53  52  96 E3        29.97R FOG
$$

TNZ061-075-076-078-094-096-097-221500-
SOUTH MIDDLE TENNESSEE

CITY           SKY/WX    TMP DP  RH WIND       PRES   REMARKS
TULLAHOMA      MOSUNNY   57  55  94 SE7       29.91F
WINCHESTER     CLOUDY    59  55  88 SE8       29.91F
MCMINNVILLE    MOSUNNY   57  57 100 E5        29.91F
COLUMBIA       CLOUDY   N/A N/A N/A N5        29.89R
SHELBYVILLE    SUNNY     59  59 100 E5        29.89F
$$

TNZ017-018-042-046-047-221500-
NORTHEAST TENNESSEE

CITY           SKY/WX    TMP DP  RH WIND       PRES   REMARKS
TRI CITIES     RAIN      50  49  96 CALM      30.01S FOG
$$

TNZ012-013-036-069-073-074-221500-
CENTRAL EAST TENNESSEE

CITY           SKY/WX    TMP DP  RH WIND       PRES   REMARKS
KNOXVILLE      LGT RAIN  56  51  84 N8        29.96R
OAK RIDGE      LGT RAIN  55  53  93 NE3       29.99R FOG
GATLINBURG     PTSUNNY   52  50  93 CALM      29.97S
$$

TNZ083-085-099-221500-
SOUTHEAST TENNESSEE

CITY           SKY/WX    TMP DP  RH WIND       PRES   REMARKS
CHATTANOOGA    LGT RAIN  57  54  89 N8        29.94S FOG
$$

SKY/WX REPORTED AS FAIR MEANS FEW OR NO CLOUDS BELOW
12 THOUSAND FEET.





USA.gov is the U.S. government's official web portal to all federal, state and local government web resources and services.